Regional Weather Roundup
Issued by NWS Upton, NY

Current Version | Previous Version | Text Only | Print | Product List | Glossary On
Versions: 1 2 3 4 5 6 7 8 9 10 11 12 13 14 15 16 17 18 19 20 21 22 23 24 25 26 27 28 29 30 31 32 33 34 35 36 37 38 39 40 41 42 43 44 45 46 47 48 49 50
000
ASUS41 KOKX 262305
RWROKX

REGIONAL WEATHER ROUNDUP
NATIONAL WEATHER SERVICE NEW YORK NY
700 PM EDT TUE AUG 26 2014

NOTE: "FAIR" INDICATES FEW OR NO CLOUDS BELOW 12,000 FEET WITH NO
SIGNIFICANT WEATHER AND/OR OBSTRUCTIONS TO VISIBILITY.

NYZ071-072-176-178-NJZ106-104-270000-
NEW YORK CITY METRO AREA


CITY           SKY/WX    TMP DP  RH WIND       PRES   REMARKS
CENTRAL PARK   FAIR      78  61  55 VRB3      30.11S
LAGUARDIA APRT FAIR      79  61  53 S12       30.07S
KENNEDY INTL   FAIR      76  65  68 S8        30.10S
NEWARK/LIBERTY FAIR      81  64  56 SE8       30.08R
BRNX BOT. GARD   N/A     77  63  61 S7        30.09S
TETERBORO      FAIR      81  61  50 S8        30.06S
$$

NYZ177-179-078>081-270000-
LONG ISLAND NEW YORK

CITY           SKY/WX    TMP DP  RH WIND       PRES   REMARKS
FARMINGDALE    FAIR      73  64  73 S8        30.10R
ISLIP          FAIR      74  63  68 S10       30.08S
SHIRLEY        FAIR      74  62  66 S6        30.10S
WESTHAMPTON    FAIR      73  59  61 S9        30.11F
MONTAUK POINT    N/A     72  63  73 VRB3      30.11S
$$

NYZ052-065-067-270000-
HUDSON VALLEY

CITY           SKY/WX    TMP DP  RH WIND       PRES   REMARKS
WHITE PLAINS   FAIR      77  63  61 S6        30.08S
NEWBURGH       PTCLDY    82  63  51 S9        30.08S
MONTGOMERY     FAIR      83  58  42 SW7       30.06S
POUGHKEEPSIE   FAIR      83  62  49 S5        30.04S
ALBANY         FAIR      83  62  49 S7        30.03S
$$

NJZ001-105-106-008-010-013-015-019>022-104-270000-
NEW JERSEY

CITY           SKY/WX    TMP DP  RH WIND       PRES   REMARKS
NEWARK/LIBERTY FAIR      81  64  56 SE8       30.08R
TETERBORO      FAIR      81  61  50 S8        30.06S
CALDWELL       FAIR      81  62  52 S9        30.07S
MORRISTOWN     CLEAR     82  63  51 S8        30.07S
SOMERVILLE     MOCLDY    81  65  58 S3        30.05S
LINDEN         FAIR      86  65  48 S8        30.09S
SUSSEX         FAIR      83  62  49 CALM      30.08S
ANDOVER          N/A     77  62  59 CALM      30.09S
TRENTON        FAIR      81  63  54 S9        30.07S
MILLVILLE      FAIR      78  63  59 SE9       30.10S
ATLANTIC CITY  FAIR      73  60  63 SE7       30.10S
WRIGHTSTOWN    FAIR      79  64  59 SE5       30.06S
TOMS RIVER     FAIR      75  64  69 S3        30.10S
BELMAR         FAIR      75  63  64 SE6       30.10S
$$

PAZ047>061-062-071-270000-
EASTERN PENNSYLVANIA

CITY           SKY/WX    TMP DP  RH WIND       PRES   REMARKS
PHILADELPHIA   FAIR      83  64  52 S8        30.08S
ALLENTOWN      FAIR      82  57  42 W5        30.08S
SCRANTON       FAIR      81  59  47 W8        30.10R
$$

CTZ002-004>006-009-010-012-RIZ004-006-007-MAZ004-011-015-270000-
SOUTHERN NEW ENGLAND
 IN CT

CITY           SKY/WX    TMP DP  RH WIND       PRES   REMARKS
BRADLEY INTL   FAIR      82  64  54 S13       30.04S
HARTFORD       FAIR      79  64  60 S8        30.06R
DANBURY        FAIR      78  65  63 S9        30.09S
WTRBRY/OXFORD  CLEAR     77  64  65 S10       30.12S
BRIDGEPORT     FAIR      79  66  64 SW10      30.08S
MERIDEN        FAIR      78  64  61 S8        30.08R
NEW HAVEN      FAIR      78  65  63 S8        30.08S
CHESTER        FAIR      73  63  68 S5        30.10S
GROTON         FAIR      70  65  84 S7        30.09S
WILLIMANTIC    FAIR      78  65  63 S7        30.08S

 IN RI

CITY           SKY/WX    TMP DP  RH WIND       PRES   REMARKS
PROVIDENCE     FAIR      74  64  71 SE7       30.08S
BLOCK ISLAND   FAIR      70  61  73 S8        30.10F
WESTERLY       FAIR      71  62  73 S6        30.10S

 IN MA

CITY           SKY/WX    TMP DP  RH WIND       PRES   REMARKS
BOSTON         FAIR      81  64  56 SW15      30.03S
WORCESTER      FAIR      78  61  55 W6        30.09F
WESTFIELD      FAIR      83  60  45 SW6       30.05S
PROVINCETOWN   FAIR      72  55  56 MISG      30.08S
NANTUCKET      FAIR      65  59  81 S5        30.11F
$$

ANZ330-335-338-340-345-350-353-355-270000-
COASTAL MARINE OBSERVATIONS


STATION/POSITION TIME  SKY/WX   TEMP    WIND        PRES    VSBY  WAVE
                                AIR SEA DIR/SP/G                  HT/PER
                 (UTC)          (F)     (DEG/KT/KT) (MB)    (MI)  (FT/S)
NY HARB ENTRANCE NOT AVBL
4S FIRE IS       NOT AVBL
23SW MTP         2300                                 N/A           3/ 8
HUDSON CANYON    2300            72 73  110/  6/  8 1019.4          3/ 8
EXECUTION ROCKS  2300            79 75  190/ 10/ 12   N/A
WESTERN LI SOUND 2300            79     180/ 10/ 12   N/A           0
CENTRAL LI SOUND 2200            76 75  190/ 10/ 12   N/A           1
EASTERN LI SOUND 2200            76 69  180/ 10/ 12   N/A
ROBBINS REEF     2300            74     150/ 17/ 19   N/A
$$


>>>>>>>>>>>>>>>>>>>>>>>>>>>> KEY <<<<<<<<<<<<<<<<<<<<<<<<<<<
>                                                          <
>     SKY/WX - SKY CONDITION/PRESENT WEATHER               <
>     TMP    - TEMPERATURE IN FAHRENHEIT                   <
>     DP     - DEWPOINT IN FAHRENHEIT                      <
>     RH     - RELATIVE HUMIDITY IN PERCENT                <
>     WIND   - DIRECTION AND SPEED IN MPH                  <
>     PRES   - MEAN SEA LEVEL PRESSURE IN INCHES OF HG     <
>     WCI    - WIND CHILL INDEX                            <
>     VSB    - VISIBILITY IN MILES                         <
>     HX     - HEAT INDEX                                  <
>     TC     - TEMPERATURE IN CELSIUS                      <
>     VRB    - VARIABLE WIND DIRECTION                     <
>                                                          <
>>>>>>>>>>>>>>>>>>>>>>>>>>>> KEY <<<<<<<<<<<<<<<<<<<<<<<<<<<




USA.gov is the U.S. government's official web portal to all federal, state and local government web resources and services.